Time,TemperatureF,DewpointF,PressureIn,WindDirection,WindDirectionDegrees,WindSpeedMPH,WindSpeedGustMPH,Humidity,HourlyPrecipIn,Conditions,Clouds,dailyrainin,SoftwareType,DateUTC
2013-02-21 00:06:00,23.4,14.1,30.18,ESE,112,8.3,-999.0,67,-99.99,,,0.00,Acu-Link.com,2013-02-21 06:06:00,
2013-02-21 00:21:00,23.2,14.2,30.18,East,90,5.8,-999.0,68,-99.99,,,0.00,Acu-Link.com,2013-02-21 06:21:00,
2013-02-21 00:36:00,23.4,14.4,30.17,ESE,112,6.8,-999.0,68,-99.99,,,0.00,Acu-Link.com,2013-02-21 06:36:00,
2013-02-21 00:51:00,22.8,13.8,30.17,NE,45,8.3,-999.0,68,-99.99,,,0.00,Acu-Link.com,2013-02-21 06:51:00,
2013-02-21 01:06:00,22.8,13.8,30.16,NE,45,6.8,-999.0,68,-99.99,,,0.00,Acu-Link.com,2013-02-21 07:06:00,
2013-02-21 01:22:00,22.5,13.6,30.15,East,90,7.8,-999.0,68,-99.99,,,0.00,Acu-Link.com,2013-02-21 07:22:00,
2013-02-21 01:37:00,22.1,13.8,30.14,NNE,22,8.9,-999.0,70,-99.99,,,0.00,Acu-Link.com,2013-02-21 07:37:00,
2013-02-21 01:52:00,21.7,13.5,30.15,East,90,6.8,-999.0,70,-99.99,,,0.00,Acu-Link.com,2013-02-21 07:52:00,
2013-02-21 02:07:00,22.6,14.6,30.15,NE,45,7.3,-999.0,71,-99.99,,,0.00,Acu-Link.com,2013-02-21 08:07:00,
2013-02-21 02:22:00,21.7,13.5,30.13,ENE,67,7.8,-999.0,70,-99.99,,,0.00,Acu-Link.com,2013-02-21 08:22:00,
2013-02-21 02:38:00,21.7,13.5,30.09,East,90,11.4,-999.0,70,-99.99,,,0.00,Acu-Link.com,2013-02-21 08:38:00,
2013-02-21 02:53:00,21.6,13.7,30.07,NNE,22,9.4,-999.0,71,-99.99,,,0.00,Acu-Link.com,2013-02-21 08:53:00,
2013-02-21 03:21:00,21.6,13.4,30.06,East,90,9.9,-999.0,70,-99.99,,,0.00,Acu-Link.com,2013-02-21 09:21:00,
2013-02-21 03:36:00,21.6,13.4,30.08,East,90,9.4,-999.0,70,-99.99,,,0.00,Acu-Link.com,2013-02-21 09:36:00,
2013-02-21 03:51:00,21.6,13.4,30.07,NE,45,4.7,-999.0,70,-99.99,,,0.00,Acu-Link.com,2013-02-21 09:51:00,
2013-02-21 04:06:00,21.6,13.4,30.07,East,90,8.9,-999.0,70,-99.99,,,0.00,Acu-Link.com,2013-02-21 10:06:00,
2013-02-21 04:22:00,21.6,13.7,30.06,ENE,67,10.9,-999.0,71,-99.99,,,0.00,Acu-Link.com,2013-02-21 10:22:00,
2013-02-21 04:37:00,21.2,13.3,30.03,East,90,12.5,-999.0,71,-99.99,,,0.00,Acu-Link.com,2013-02-21 10:37:00,
2013-02-21 04:52:00,21.2,13.3,30.04,ENE,67,10.4,-999.0,71,-99.99,,,0.00,Acu-Link.com,2013-02-21 10:52:00,
2013-02-21 05:07:00,21.0,13.1,30.03,NE,45,10.9,-999.0,71,-99.99,,,0.00,Acu-Link.com,2013-02-21 11:07:00,
2013-02-21 05:23:00,21.0,13.4,30.04,East,90,11.4,-999.0,72,-99.99,,,0.00,Acu-Link.com,2013-02-21 11:23:00,
2013-02-21 05:38:00,21.0,13.4,30.06,NE,45,12.5,-999.0,72,-99.99,,,0.00,Acu-Link.com,2013-02-21 11:38:00,
2013-02-21 05:53:00,21.0,13.4,30.05,ENE,67,17.1,-999.0,72,-99.99,,,0.00,Acu-Link.com,2013-02-21 11:53:00,
2013-02-21 06:08:00,20.8,13.5,30.03,ENE,67,10.4,-999.0,73,-99.99,,,0.00,Acu-Link.com,2013-02-21 12:08:00,
2013-02-21 06:23:00,20.8,13.2,30.04,East,90,12.5,-999.0,72,-99.99,,,0.00,Acu-Link.com,2013-02-21 12:23:00,
2013-02-21 06:39:00,20.8,13.5,30.05,NE,45,7.3,-999.0,73,-99.99,,,0.00,Acu-Link.com,2013-02-21 12:39:00,
2013-02-21 06:54:00,21.0,13.7,30.05,East,90,8.3,-999.0,73,-99.99,,,0.00,Acu-Link.com,2013-02-21 12:54:00,
2013-02-21 07:09:00,20.7,13.7,30.04,ENE,67,14.0,-999.0,74,-99.99,,,0.00,Acu-Link.com,2013-02-21 13:09:00,
2013-02-21 07:24:00,20.7,14.1,30.02,East,90,12.5,-999.0,75,-99.99,,,0.00,Acu-Link.com,2013-02-21 13:24:00,
2013-02-21 07:40:00,19.9,13.3,30.01,ENE,67,14.0,-999.0,75,-99.99,,,0.00,Acu-Link.com,2013-02-21 13:40:00,
2013-02-21 07:55:00,20.8,14.1,30.02,ENE,67,11.4,-999.0,75,-99.99,,,0.00,Acu-Link.com,2013-02-21 13:55:00,
2013-02-21 08:10:00,20.8,14.5,30.06,SE,135,8.9,-999.0,76,-99.99,,,0.00,Acu-Link.com,2013-02-21 14:10:00,
2013-02-21 08:25:00,21.2,14.8,30.07,East,90,9.9,-999.0,76,-99.99,,,0.00,Acu-Link.com,2013-02-21 14:25:00,
2013-02-21 08:41:00,21.0,14.6,30.06,ENE,67,6.3,-999.0,76,-99.99,,,0.00,Acu-Link.com,2013-02-21 14:41:00,
2013-02-21 08:56:00,21.0,16.4,30.04,ENE,67,6.3,-999.0,82,-99.99,,,0.00,Acu-Link.com,2013-02-21 14:56:00,
2013-02-21 09:11:00,19.8,19.3,30.02,ENE,67,8.9,-999.0,98,-99.99,,,0.00,Acu-Link.com,2013-02-21 15:11:00,
2013-02-21 09:26:00,19.4,18.9,30.01,NE,45,10.9,-999.0,98,-99.99,,,0.00,Acu-Link.com,2013-02-21 15:26:00,
2013-02-21 09:42:00,19.2,18.7,30.01,East,90,10.4,-999.0,98,-99.99,,,0.00,Acu-Link.com,2013-02-21 15:42:00,
2013-02-21 09:57:00,19.6,19.1,30.00,ENE,67,11.9,-999.0,98,-99.99,,,0.00,Acu-Link.com,2013-02-21 15:57:00,
2013-02-21 10:12:00,19.9,19.4,29.97,NE,45,11.4,-999.0,98,-99.99,,,0.00,Acu-Link.com,2013-02-21 16:12:00,
2013-02-21 10:27:00,20.1,19.6,29.95,East,90,13.0,-999.0,98,-99.99,,,0.00,Acu-Link.com,2013-02-21 16:27:00,
2013-02-21 10:42:00,20.1,19.6,29.95,NE,45,14.0,-999.0,98,-99.99,,,0.00,Acu-Link.com,2013-02-21 16:42:00,
2013-02-21 10:58:00,20.5,20.0,29.93,ESE,112,15.0,-999.0,98,-99.99,,,0.00,Acu-Link.com,2013-02-21 16:58:00,
2013-02-21 11:13:00,20.8,20.3,29.91,ENE,67,14.5,-999.0,98,-99.99,,,0.00,Acu-Link.com,2013-02-21 17:13:00,
2013-02-21 11:28:00,21.0,20.5,29.90,ESE,112,18.1,-999.0,98,-99.99,,,0.00,Acu-Link.com,2013-02-21 17:28:00,
2013-02-21 11:43:00,21.0,20.5,29.88,East,90,14.0,-999.0,98,-99.99,,,0.00,Acu-Link.com,2013-02-21 17:43:00,
2013-02-21 11:58:00,21.4,20.9,29.89,East,90,11.4,-999.0,98,-99.99,,,0.00,Acu-Link.com,2013-02-21 17:58:00,
2013-02-21 12:14:00,21.6,21.1,29.88,East,90,14.5,-999.0,98,-99.99,,,0.00,Acu-Link.com,2013-02-21 18:14:00,
2013-02-21 12:29:00,21.9,21.4,29.88,East,90,10.4,-999.0,98,-99.99,,,0.00,Acu-Link.com,2013-02-21 18:29:00,
2013-02-21 12:44:00,21.7,21.2,29.87,East,90,11.4,-999.0,98,-99.99,,,0.00,Acu-Link.com,2013-02-21 18:44:00,
2013-02-21 13:00:00,21.9,21.4,29.86,East,90,14.5,-999.0,98,-99.99,,,0.00,Acu-Link.com,2013-02-21 19:00:00,
2013-02-21 13:15:00,23.0,22.5,29.85,ESE,112,8.9,-999.0,98,-99.99,,,0.00,Acu-Link.com,2013-02-21 19:15:00,
2013-02-21 13:30:00,22.1,21.6,29.84,NE,45,9.4,-999.0,98,-99.99,,,0.00,Acu-Link.com,2013-02-21 19:30:00,
2013-02-21 13:46:00,22.3,21.8,29.84,NE,45,17.1,-999.0,98,-99.99,,,0.00,Acu-Link.com,2013-02-21 19:46:00,
2013-02-21 14:01:00,22.3,21.8,29.84,East,90,17.6,-999.0,98,-99.99,,,0.00,Acu-Link.com,2013-02-21 20:01:00,
2013-02-21 14:16:00,21.9,21.4,29.82,NE,45,15.5,-999.0,98,-99.99,,,0.00,Acu-Link.com,2013-02-21 20:16:00,
2013-02-21 14:31:00,22.1,21.6,29.83,NE,45,10.9,-999.0,98,-99.99,,,0.00,Acu-Link.com,2013-02-21 20:31:00,
2013-02-21 14:46:00,21.9,21.4,29.82,ESE,112,9.4,-999.0,98,-99.99,,,0.00,Acu-Link.com,2013-02-21 20:46:00,
2013-02-21 15:02:00,22.6,22.1,29.82,NE,45,4.2,-999.0,98,-99.99,,,0.00,Acu-Link.com,2013-02-21 21:02:00,
2013-02-21 15:17:00,21.9,21.4,29.81,ENE,67,11.4,-999.0,98,-99.99,,,0.00,Acu-Link.com,2013-02-21 21:17:00,
2013-02-21 15:32:00,24.6,24.1,29.81,NE,45,5.8,-999.0,98,-99.99,,,0.00,Acu-Link.com,2013-02-21 21:32:00,
2013-02-21 15:47:00,22.1,21.6,29.80,ENE,67,16.1,-999.0,98,-99.99,,,0.00,Acu-Link.com,2013-02-21 21:47:00,
2013-02-21 16:03:00,21.9,21.4,29.79,East,90,11.9,-999.0,98,-99.99,,,0.00,Acu-Link.com,2013-02-21 22:03:00,
2013-02-21 16:18:00,22.1,21.6,29.79,SE,135,5.3,-999.0,98,-99.99,,,0.00,Acu-Link.com,2013-02-21 22:18:00,
2013-02-21 16:33:00,21.6,21.1,29.79,ESE,112,9.9,-999.0,98,-99.99,,,0.00,Acu-Link.com,2013-02-21 22:33:00,
2013-02-21 16:48:00,21.6,21.1,29.79,NNE,22,6.8,-999.0,98,-99.99,,,0.00,Acu-Link.com,2013-02-21 22:48:00,
2013-02-21 17:03:00,21.4,20.9,29.79,East,90,10.9,-999.0,98,-99.99,,,0.00,Acu-Link.com,2013-02-21 23:03:00,
2013-02-21 17:19:00,21.4,20.9,29.79,East,90,6.3,-999.0,98,-99.99,,,0.00,Acu-Link.com,2013-02-21 23:19:00,
2013-02-21 17:34:00,21.2,20.7,29.80,East,90,8.3,-999.0,98,-99.99,,,0.00,Acu-Link.com,2013-02-21 23:34:00,
2013-02-21 17:49:00,21.0,20.5,29.79,East,90,9.4,-999.0,98,-99.99,,,0.00,Acu-Link.com,2013-02-21 23:49:00,
2013-02-21 18:04:00,21.0,20.5,29.79,ESE,112,6.8,-999.0,98,-99.99,,,0.00,Acu-Link.com,2013-02-22 00:04:00,
2013-02-21 18:19:00,20.8,20.3,29.79,ESE,112,7.8,-999.0,98,-99.99,,,0.00,Acu-Link.com,2013-02-22 00:19:00,
2013-02-21 18:35:00,20.8,20.3,29.78,ESE,112,4.7,-999.0,98,-99.99,,,0.00,Acu-Link.com,2013-02-22 00:35:00,
2013-02-21 18:50:00,20.7,20.2,29.79,ESE,112,5.8,-999.0,98,-99.99,,,0.00,Acu-Link.com,2013-02-22 00:50:00,
2013-02-21 19:05:00,20.7,20.2,29.78,East,90,5.8,-999.0,98,-99.99,,,0.00,Acu-Link.com,2013-02-22 01:05:00,
2013-02-21 19:20:00,20.5,20.0,29.79,East,90,6.3,-999.0,98,-99.99,,,0.00,Acu-Link.com,2013-02-22 01:20:00,
2013-02-21 19:36:00,20.5,20.0,29.78,East,90,5.3,-999.0,98,-99.99,,,0.00,Acu-Link.com,2013-02-22 01:36:00,
2013-02-21 19:51:00,20.5,20.0,29.78,ENE,67,5.8,-999.0,98,-99.99,,,0.00,Acu-Link.com,2013-02-22 01:51:00,
2013-02-21 20:06:00,20.7,20.2,29.78,East,90,5.3,-999.0,98,-99.99,,,0.00,Acu-Link.com,2013-02-22 02:06:00,
2013-02-21 20:21:00,20.7,20.2,29.78,NE,45,3.7,-999.0,98,-99.99,,,0.00,Acu-Link.com,2013-02-22 02:21:00,
2013-02-21 20:36:00,20.7,20.2,29.77,NNE,22,2.7,-999.0,98,-99.99,,,0.00,Acu-Link.com,2013-02-22 02:36:00,
2013-02-21 20:52:00,20.5,20.0,29.77,NE,45,2.2,-999.0,98,-99.99,,,0.00,Acu-Link.com,2013-02-22 02:52:00,
2013-02-21 21:07:00,20.5,20.0,29.77,NNW,337,2.2,-999.0,98,-99.99,,,0.00,Acu-Link.com,2013-02-22 03:07:00,
2013-02-21 21:22:00,20.5,20.0,29.77,NNW,337,2.7,-999.0,98,-99.99,,,0.00,Acu-Link.com,2013-02-22 03:22:00,
2013-02-21 21:37:00,20.7,20.2,29.77,NNW,337,3.2,-999.0,98,-99.99,,,0.00,Acu-Link.com,2013-02-22 03:37:00,
2013-02-21 21:52:00,20.8,20.3,29.76,North,0,3.7,-999.0,98,-99.99,,,0.00,Acu-Link.com,2013-02-22 03:52:00,
2013-02-21 22:08:00,20.8,20.3,29.75,NNW,337,5.3,-999.0,98,-99.99,,,0.00,Acu-Link.com,2013-02-22 04:08:00,
2013-02-21 22:23:00,21.0,20.5,29.75,NNW,337,5.3,-999.0,98,-99.99,,,0.00,Acu-Link.com,2013-02-22 04:23:00,
2013-02-21 22:38:00,21.0,20.5,29.75,NNW,337,4.7,-999.0,98,-99.99,,,0.00,Acu-Link.com,2013-02-22 04:38:00,
2013-02-21 22:53:00,21.0,20.5,29.75,NNW,337,2.7,-999.0,98,-99.99,,,0.00,Acu-Link.com,2013-02-22 04:53:00,
2013-02-21 23:08:00,21.2,20.7,29.75,NNE,22,3.7,-999.0,98,-99.99,,,0.00,Acu-Link.com,2013-02-22 05:08:00,
2013-02-21 23:24:00,21.4,20.9,29.74,NNW,337,5.3,-999.0,98,-99.99,,,0.00,Acu-Link.com,2013-02-22 05:24:00,
2013-02-21 23:39:00,21.4,20.9,29.74,NNW,337,3.2,-999.0,98,-99.99,,,0.00,Acu-Link.com,2013-02-22 05:39:00,
2013-02-21 23:54:00,21.4,20.9,29.74,NNW,337,2.2,-999.0,98,-99.99,,,0.00,Acu-Link.com,2013-02-22 05:54:00,